Location: 22
(39.7117°N, 89.5929°W)
Time: 07:04:27
(UTC-05:00)

ISS - Pass Details

Date: 29 September 2021
Orbit: 417 x 423 km, 51.6° (Epoch: 16 October)

Event Time Altitude Azimuth Distance (km) Brightness Sun altitude
Rises 20:59:24 0° 313° (NW) 2,365 1.1 -26.6°
Reaches altitude 10° 21:01:38 10° 323° (NW) 1,500 -0.2 -27.0°
Enters shadow 21:02:37 17° 332° (NNW) 1,154 -1.0 -27.1°
